Location: Rounton
(54.4000°N, 1.3500°W)
Time: 08:22:09
(UTC+00:00)

Vanguard 1 Rocket - Pass Details

Date: 09 December 2021
Orbit: 651 x 4224 km, 34.3° (Epoch: 19 January)

Event Time Altitude Azimuth Distance (km) Brightness Sun altitude
Rises 00:16:01 0° 190° (S) 3,934 - -58.2°
Reaches altitude 10° 00:20:17 10° 164° (SSE) 3,511 - -58.1°
Maximum altitude 00:24:13 13° 138° (SE) 3,746 - -58.0°
Drops below altitude 10° 00:29:08 10° 113° (ESE) 4,646 - -57.9°
Exits shadow 00:31:37 - 105° (ESE) 5,225 11.2 -57.8°
Sets 00:36:59 0° 93° (E) 6,574 11.9 -57.6°
